Home > Weather > Utsunomiya > Past weeks

Flag for Japan Weather for the Past 2 Weeks in Utsunomiya, Japan

Now
36 °F

Scattered clouds.


Feels Like: 36 °F
Forecast: 18 / 41 °F
Wind: 2 mph from North

Location: Hyakuri Ab

Current Time: Feb 7, 2016 at 9:08:18 AM

Latest Report: Feb 7, 2016 at 8:00 AM


Visibility: N/A

Pressure: 29.95 "Hg

Humidity: 56%

Dew point: 21 °F

Location of UtsunomiyaLocation

Historic Weather in Utsunomiya — Graph

°F

Utsunomiya Temperature Yesterday

Maximum temperature yesterday: 45 °F (at 11:00 AM)
Minimum temperature yesterday: 32 °F (at 12:00 AM)
Average temperature yesterday: 40 °F

High & Low Weather Summary for the Past Weeks

 TemperatureHumidityPressure
High55 °F (Jan 27, 2:00 PM)93% (Jan 23, 6:00 PM)30.30 "Hg (Jan 23, 6:00 PM)
Low18 °F (Jan 26, 7:00 AM)19% (Jan 24, 4:00 PM)29.50 "Hg (Jan 24, 12:00 PM)
Average37 °F66%30.05 "Hg
* Reported Jan 23 7:00 AM — Feb 7 7:00 AM, Utsunomiya, Weather by CustomWeather, © 2016

Note: Actual official high and low records may vary slightly from our data, if they occured in-between our weather recording intervals... More about our weather records

Advertising

Utsunomiya Weather History for the Previous 24 Hours

 ConditionsComfort  
Time TempWeatherWind HumidityBarometerVisibility
7:00 AM
Sun, Feb 7
34 °FPartly sunny.1 mph56%29.95 "HgN/A
6:00 AM34 °FPassing clouds.7 mph56%29.89 "HgN/A
5:00 AM36 °FPassing clouds.9 mph52%29.89 "HgN/A
4:00 AM36 °FPartly cloudy.10 mph52%29.89 "HgN/A
3:00 AM36 °FPassing clouds.13 mph56%29.86 "HgN/A
2:00 AM36 °FPassing clouds.9 mph70%29.89 "HgN/A
1:00 AM36 °FPassing clouds.12 mph65%29.89 "HgN/A
12:49 AM36 °FPassing clouds.12 mph70%29.89 "HgN/A
12:00 AM36 °FMostly cloudy.15 mph70%29.89 "HgN/A
11:00 PM
Sat, Feb 6
39 °FLight rain. Overcast.16 mph70%29.92 "HgN/A
10:00 PM39 °FLight rain. Overcast.15 mph75%29.92 "HgN/A
9:00 PM41 °FLight rain. Mostly cloudy.14 mph70%29.92 "HgN/A
8:00 PM43 °FOvercast.14 mph71%29.89 "HgN/A
7:00 PM43 °FLight rain. Mostly cloudy.10 mph71%29.89 "HgN/A
6:50 PM43 °FLight rain. Passing clouds.12 mph71%29.89 "HgN/A
6:00 PM43 °FPassing clouds.10 mph71%29.89 "HgN/A
5:48 PM43 °FPassing clouds.12 mph71%29.89 "HgN/A
5:00 PM43 °FBroken clouds.10 mph71%29.89 "HgN/A
4:00 PM43 °FBroken clouds.12 mph71%29.86 "HgN/A
3:00 PM45 °FBroken clouds.10 mph71%29.86 "HgN/A
2:00 PM45 °FBroken clouds.13 mph71%29.83 "HgN/A
1:00 PM43 °FPartly sunny.12 mph76%29.86 "HgN/A
12:00 PM45 °FPartly sunny.13 mph76%29.89 "HgN/A
11:00 AM45 °FPartly sunny.10 mph76%29.92 "HgN/A
10:00 AM41 °FBroken clouds.9 mph81%29.92 "HgN/A
9:00 AM41 °FPartly sunny.9 mph76%29.89 "HgN/A
Weather by CustomWeather, © 2016

See weather overviewHow to use our weather pages